Miscellaneous Local Product
Issued by NWS North Platte, NE

Home | Current Version | Previous Version | Text Only | Print | Product List | Glossary On
Versions: 1 2 3 4 5 6 7 8 9 10 11 12 13 14 15 16 17 18 19 20 21 22 23 24 25 26 27 28 29 30 31 32 33 34 35 36 37 38 39 40 41 42 43 44 45 46 47 48 49 50
048
AXUS43 KLBF 222110
MISLBF


WESTERN AND NORTH CENTRAL NEBRASKA HOURLY WEATHER ROUNDUP
NATIONAL WEATHER SERVICE NORTH PLATTE NE
400 PM CDT SUN OCT 22 2017

NOTE: "FAIR" INDICATES FEW OR NO CLOUDS BELOW 12,000 FEET WITH NO
SIGNIFICANT WEATHER AND/OR OBSTRUCTIONS TO VISIBILITY.

NOTE: STATIONS NOT REPORTING VARIABLES SUCH AS SKY/WEATHER OR
PRESSURE ARE PROVIDED BY RAWS AND APRS NETWORKS AND ARE NOT UNDER
NATIONAL WEATHER SERVICE QUALITY CONTROL.

...OBSERVATIONS IN AND NEAR THE EASTERN PANHANDLE OF NEBRASKA...

CITY           SKY/WX    TMP DP  RH WIND       PRES   REMARKS
PINE RIDGE     CLOUDY    71  28  20 W14G28    29.91F
GORDON         FAIR      70  29  21 W16G23    29.92F
CHADRON        CLOUDY    70  25  18 NW21G33   29.92F
ALLIANCE       CLOUDY    68  28  22 MISG      29.96F
SIDNEY         SUNNY     73  28  18 W21G26    30.03F
$$

...OBSERVATIONS IN NORTHERN NEBRASKA AND FAR SOUTHERN SOUTH DAKOTA...

CITY           SKY/WX    TMP DP  RH WIND       PRES   REMARKS
WINNER         FAIR      70  30  22 W14       29.89S
VALENTINE      SUNNY     71  28  20 W16       29.91F
THEDFORD       SUNNY     70  31  24 SW12G25   29.96F
AINSWORTH      SUNNY     67  32  26 W17G26    29.92F
O`NEILL        SUNNY     69  32  25 SW16G23   29.94F
ORD            SUNNY     68  28  22 W17G24    29.96F
BROKEN BOW     SUNNY     68  29  23 W18G26    29.98F
VALENTINE NWR    N/A     67  27  22 W14G23      N/A
HALSEY           N/A     70  28  21 W8G17       N/A
BUTTE            N/A     68  30  24 SW12G24     N/A
CHAMBERS         N/A     67  31  26 S7          N/A
EWING            N/A     68  31  25 SW14        N/A
$$

...OBSERVATIONS IN SOUTHWEST NEBRASKA AND FAR NORTHEAST COLORADO...

CITY           SKY/WX    TMP DP  RH WIND       PRES   REMARKS
HOLYOKE        FAIR      73  27  17 W16G25    30.05S
IMPERIAL       CLOUDY    71  26  18 W14       30.02F
OGALLALA       CLOUDY    72  27  19 SW10G21   29.99F
NORTH PLATTE   SUNNY     70  28  21 W16G26    29.98F
MCCOOK         SUNNY     71  22  15 W20G28    30.02F
LEXINGTON      SUNNY     70  23  17 SW14G22   30.01F
STAPLETON        N/A     67  35  30 CALM        N/A
GOTHENBURG       N/A     67  21  17 SW10        N/A
CALLAWAY         N/A     68  29  23 W20         N/A
$$

...OBSERVATIONS IN CENTRAL LINCOLN COUNTY AREA...

CITY           SKY/WX    TMP DP  RH WIND       PRES   REMARKS
N.P. AIRPORT   SUNNY     70  28  21 W16G26    29.98F
N.P. DOWNTOWN    N/A     68  31  25 W3          N/A
N.P. SOUTHEAST   N/A     69  32  25 W7G14       N/A
N.P. HILLCREST   N/A     68  31  25 W17G24      N/A
$$

...SOME OBSERVATIONS FROM AROUND THE REGION...

CITY           SKY/WX    TMP DP  RH WIND       PRES   REMARKS
DENVER         CLOUDY    67  23  19 W16G25    30.12R
LIMON          CLOUDY    68  26  20 NW12      30.11F
ASPEN          CLOUDY    54  26  34 NW7       30.42S
LARAMIE        CLOUDY    54  20  26 SW35G40   30.18S
CASPER         CLOUDY    59  26  28 W33G44    30.06S
CHEYENNE       CLOUDY    63  19  18 W36G46    30.10F
SCOTTSBLUFF    CLOUDY    65  28  24 W24G38    30.01R
GRAND ISLAND   SUNNY     69  25  19 W16       30.02F
OMAHA          MOSUNNY   68  29  23 SW7       30.04F
SIOUX FALLS    MOSUNNY   67  32  27 SW9G28    29.92F
PIERRE         MOSUNNY   68  27  21 SW13      29.82F
RAPID CITY     PTSUNNY   68  28  22 SW15      29.86S
BISMARCK       CLOUDY    64  34  32 SW16      29.69F
KANSAS CITY    MOSUNNY   66  37  34 NW6       30.10S
HILL CITY      SUNNY     71  21  15 SW16G23   30.07F
WICHITA        SUNNY     70  26  19 W6        30.11F
DODGE CITY     SUNNY     71  16  12 W10       30.12F
OKLAHOMA CITY  SUNNY     67  35  30 NW12      30.17F
DALLAS         MOSUNNY   76  38  25 N15G22    30.12S
AMARILLO       CLOUDY    66  28  24 SW13      30.21F
$$




USA.gov is the U.S. government's official web portal to all federal, state and local government web resources and services.